Location: Eurasberg
(48.3353°N, 11.0839°E)
Time: 12:54:41
(UTC+00:00)

Timation 1 Rocket - Pass Details

Date: 27 April 2026
Orbit: 895 x 908 km, 70.0° (Epoch: 14 May)

Event Time Altitude Azimuth Distance (km) Brightness Sun altitude
Rises 01:36:25 0° 285° (WNW) 3,539 7.2 -20.2°
Reaches altitude 10° 01:40:48 10° 315° (NW) 2,601 6.8 -19.8°
Maximum altitude 01:43:07 12° 338° (NNW) 2,446 6.9 -19.5°
Drops below altitude 10° 01:45:26 10° 1° (N) 2,604 7.5 -19.3°
Sets 01:49:51 0° 31° (NNE) 3,547 9.0 -18.8°
